カタログに戻る

STARLINK-3200

運用中通信VLEO
NORAD 49753·PAYLOAD·🇺🇸 United States

打ち上げ Dec 2, 2021 から Cape Canaveral Space Force Station

Loading…

次のパス (今後24時間)

TLE

最新Source: CelesTrak SupGP

元期: Sep 14, 2026, 20:48 UTC

1 49753C 21115AF  26257.86715278 -.00009114  00000+0 -26934-3 0  2574
2 49753  53.1601   8.0838 0001249  78.9308  49.5756 15.34386808    17

AllMySatでSTARLINK-3200をリアルタイム追跡

Download on the App Store